Weather reports worldwide

Advertisment
La Roche-Sur-Yon, France (7306): temperature & dewpoint: 10.09.2019 05:00:00 - 16.09.2019 05:00:00 (CEST)La Roche-Sur-Yon, France (7306): temperature 5cm: 10.09.2019 05:00:00 - 16.09.2019 05:00:00 (CEST)La Roche-Sur-Yon, France (7306): temperature -20cm & temperature -100cm: 10.09.2019 05:00:00 - 16.09.2019 05:00:00 (CEST)La Roche-Sur-Yon, France (7306): wind speed & gusts: 10.09.2019 05:00:00 - 16.09.2019 05:00:00 (CEST)La Roche-Sur-Yon, France (7306): wind direction: 10.09.2019 05:00:00 - 16.09.2019 05:00:00 (CEST)La Roche-Sur-Yon, France (7306): reduced air pressure: 10.09.2019 05:00:00 - 16.09.2019 05:00:00 (CEST)La Roche-Sur-Yon, France (7306): visibility: 10.09.2019 05:00:00 - 16.09.2019 05:00:00 (CEST)La Roche-Sur-Yon, France (7306): sunshine duration: 10.09.2019 05:00:00 - 16.09.2019 05:00:00 (CEST)La Roche-Sur-Yon, France (7306): precipitation: 10.09.2019 05:00:00 - 16.09.2019 05:00:00 (CEST)
Date & Time tt [°C] td [°C] tt 5cm [°C] tt -20cm [°C] tt -100cm [°C] ff [km/h] ff [kn] fx [km/h] fx [kn] dd ppp [hPa] vv [km] sd [min] rr [mm]
16.09.2019 05:00:00 16,3 14,7 15,1 19,9 18,2 17 9 24 13 N 1020,9 36 0 0,0
16.09.2019 04:00:00 17,1 14,7 15,8 20,0 18,2 11 6 20 11 N 1021,3 45 0 0,0
16.09.2019 03:00:00 18,0 15,1 16,8 20,0 18,2 14 8 29 16 N 1021,4 54 0 0,0
16.09.2019 02:00:00 18,8 14,9 17,6 20,1 18,1 15 8 23 12 NNE 1021,3 60 0 0,0
16.09.2019 01:00:00 19,7 14,1 17,5 20,1 18,1 14 8 21 11 NNE 1021,6 60 0 0,0
16.09.2019 00:00:00 20,1 13,1 17,6 20,2 18,1 12 6 16 9 N 1021,7 60 0 0,0
15.09.2019 23:00:00 20,9 13,1 18,2 20,3 18,1 11 6 16 9 NNE 1021,6 60 0 0,0
15.09.2019 22:00:00 22,2 13,5 19,0 20,3 18,2 11 6 15 8 NNE 1021,3 60 0 0,0
15.09.2019 21:00:00 24,0 13,8 18,7 20,2 18,1 9 5 11 6 NNE 1020,9 60 0 0,0
15.09.2019 20:00:00 26,0 14,1 23,0 20,1 18,1 10 5 15 8 N 1020,4 60 55 0,0
15.09.2019 19:00:00 29,1 15,2 30,9 20,0 18,2 9 5 16 9 N 1020,2 60 60 0,0
15.09.2019 18:00:00 30,3 14,0 35,2 19,8 18,2 9 5 18 10 NNE 1020,3 60 60 0,0
15.09.2019 17:00:00 30,7 13,5 36,7 19,6 18,2 7 4 18 10 NNE 1020,8 17 60 0,0
15.09.2019 16:00:00 30,7 13,9 36,6 19,3 18,1 9 5 21 12 NE 1021,4 60 60 0,0
15.09.2019 15:00:00 29,9 14,0 36,2 19,1 18,1 10 5 27 15 NNE 1022,0 19 60 0,0
15.09.2019 14:00:00 28,9 14,7 35,7 18,9 18,1 13 7 24 13 NE 1022,6 60 60 0,0
15.09.2019 13:00:00 28,3 15,9 33,4 18,8 18,1 13 7 23 13 NNE 1023,2 50 60 0,0
15.09.2019 12:00:00 26,9 16,2 30,0 18,8 18,1 11 6 20 11 ENE 1023,7 60 60 0,0
15.09.2019 11:00:00 24,7 16,4 24,8 18,8 18,1 7 4 14 7 ENE 1024,1 60 60 0,0
15.09.2019 10:00:00 21,4 15,7 19,0 18,8 18,1 8 5 13 7 NE 1024,1 55 60 0,0
15.09.2019 09:00:00 17,9 14,6 12,3 18,9 18,1 5 3 11 6 NNE 1023,7 58 55 0,0
15.09.2019 08:00:00 14,9 13,3 11,4 19,0 18,1 7 4 13 7 NE 1023,8 60 0 0,0
15.09.2019 07:00:00 14,7 13,1 11,1 19,1 18,1 8 4 13 7 NE 1023,6 60 0 0,0
15.09.2019 06:00:00 14,7 13,1 11,7 19,2 18,1 8 4 12 7 NE 1023,5 48 0 0,0
15.09.2019 05:00:00 14,5 13,0 11,7 19,3 18,1 8 5 9 5 NE 1024,0 46 0 0,0
15.09.2019 04:00:00 16,2 14,0 11,8 19,5 18,1 7 4 10 5 NE 1024,2 60 0 0,0
15.09.2019 03:00:00 16,4 14,1 12,6 19,5 18,1 8 4 13 7 ENE 1024,5 20 0 0,0
15.09.2019 02:00:00 17,4 14,7 13,7 19,6 18,1 6 3 15 8 NE 1024,7 60 0 0,0
15.09.2019 01:00:00 17,2 14,5 12,4 19,7 18,1 10 6 12 6 NNE 1024,9 60 0 0,0
15.09.2019 00:00:00 17,8 14,1 12,7 19,8 18,1 6 3 9 5 NNE 1025,1 60 0 0,0
14.09.2019 23:00:00 19,0 14,7 14,4 19,8 18,1 9 5 13 7 NE 1025,1 19 0 0,0
14.09.2019 22:00:00 20,7 14,8 16,8 19,8 18,1 10 6 14 8 ENE 1025,1 60 0 0,0
14.09.2019 21:00:00 21,7 15,1 17,8 19,8 18,1 10 5 16 8 NE 1024,8 60 0 0,0
14.09.2019 20:00:00 24,8 15,7 23,0 19,7 18,1 10 6 17 9 NNE 1024,6 60 57 0,0
14.09.2019 19:00:00 27,5 16,8 30,4 19,5 18,1 9 5 23 12 NNE 1024,5 60 60 0,0
14.09.2019 18:00:00 28,9 15,4 30,6 19,3 18,1 14 8 26 14 ENE 1024,4 57 58 0,0
14.09.2019 17:00:00 28,6 16,2 30,9 19,1 18,1 14 8 35 19 ENE 1024,5 60 60 0,0
14.09.2019 16:00:00 28,7 15,9 31,5 18,9 18,1 16 8 28 15 ENE 1025,0 60 58 0,0
14.09.2019 15:00:00 28,0 16,3 32,7 18,8 18,1 17 9 32 17 NE 1025,5 47 60 0,0
14.09.2019 14:00:00 26,5 16,1 28,8 18,7 18,1 16 9 30 16 NE 1026,2 53 60 0,0
14.09.2019 13:00:00 24,2 15,9 26,5 18,6 18,1 15 8 22 12 E 1026,7 60 20 0,0
14.09.2019 12:00:00 23,0 16,3 23,0 18,6 18,1 14 8 29 16 NNE 1027,1 60 50 0,0
14.09.2019 11:00:00 20,2 15,2 20,9 18,6 18,1 18 10 29 16 NE 1027,4 60 36 0,0
14.09.2019 10:00:00 18,7 15,0 17,2 18,7 18,1 17 9 29 16 NE 1027,9 36 40 0,0
14.09.2019 09:00:00 16,8 14,3 15,2 18,8 18,1 19 10 29 16 NE 1027,5 48 11 0,0
14.09.2019 08:00:00 16,0 14,0 14,6 18,8 18,1 16 8 22 12 NE 1027,7 60 0 0,0
14.09.2019 07:00:00 16,8 14,3 15,7 18,9 18,1 16 9 29 15 NE 1027,5 60 0 0,0
14.09.2019 06:00:00 17,1 14,2 15,9 19,0 18,1 20 11 29 16 NE 1027,0 60 0 0,0
14.09.2019 05:00:00 17,2 14,1 15,1 19,1 18,1 17 9 23 12 NE 1027,5 60 0 0,0
14.09.2019 04:00:00 16,8 14,1 14,1 19,1 18,1 12 7 17 9 NE 1027,9 60 0 0,0
14.09.2019 03:00:00 16,9 14,0 14,8 19,2 18,1 11 6 20 11 NNE 1028,5 60 0 0,0
14.09.2019 02:00:00 17,1 14,4 15,6 19,3 18,1 13 7 23 13 N 1028,6 60 0 0,0
14.09.2019 01:00:00 18,2 14,5 16,8 19,3 18,1 14 7 24 13 NNE 1028,3 60 0 0,0
14.09.2019 00:00:00 18,8 14,7 17,3 19,4 18,1 14 8 21 11 NNE 1028,6 60 0 0,0
13.09.2019 23:00:00 19,7 14,7 17,9 19,4 18,1 13 7 22 12 N 1028,8 60 0 0,0
13.09.2019 22:00:00 21,0 14,9 19,2 19,4 18,1 14 8 22 12 NNE 1028,7 60 0 0,0
13.09.2019 21:00:00 21,7 15,3 19,5 19,3 18,1 13 7 19 10 NNE 1028,4 60 0 0,0
13.09.2019 20:00:00 24,1 15,3 22,5 19,2 18,1 12 6 21 12 NNE 1028,3 58 60 0,0
13.09.2019 19:00:00 26,3 15,4 28,0 19,1 18,1 16 9 31 17 NNE 1028,3 58 60 0,0
13.09.2019 18:00:00 27,3 15,6 31,6 18,9 18,1 18 10 33 18 NNE 1028,0 36 60 0,0
13.09.2019 17:00:00 27,4 16,1 33,4 18,7 18,1 19 11 29 16 NNE 1028,4 28 60 0,0
13.09.2019 16:00:00 27,0 16,0 32,8 18,4 18,1 19 10 29 16 NE 1029,2 22 60 0,0
13.09.2019 15:00:00 26,2 16,2 32,2 18,3 18,1 20 11 34 18 NNE 1029,8 22 60 0,0
13.09.2019 14:00:00 25,1 17,0 30,9 18,1 18,1 23 13 35 19 NNE 1030,2 22 60 0,0
13.09.2019 13:00:00 23,4 16,9 27,9 18,0 18,1 23 12 39 21 NNE 1030,8 20 60 0,0
13.09.2019 12:00:00 21,4 16,4 25,5 18,0 18,1 24 13 34 18 NNE 1031,4 26 60 0,0
13.09.2019 11:00:00 19,9 16,5 22,1 18,0 18,1 18 10 26 14 NNE 1031,9 27 60 0,0
13.09.2019 10:00:00 18,1 16,1 16,1 18,1 18,1 13 7 18 10 NNE 1031,9 21 60 0,0
13.09.2019 09:00:00 15,4 14,9 11,5 18,1 18,1 9 5 13 7 NNE 1031,9 17 58 0,0
13.09.2019 08:00:00 12,9 12,6 9,9 18,2 18,1 8 4 13 7 NNE 1031,8 11 0 0,0
13.09.2019 07:00:00 13,2 12,9 11,5 18,3 18,1 9 5 15 8 NNE 1031,4 14 0 0,0
13.09.2019 06:00:00 13,6 13,3 12,0 18,4 18,1 13 7 16 9 NNE 1031,3 14 0 0,2
13.09.2019 05:00:00 13,4 13,1 12,0 18,6 18,1 10 5 15 8 NNE 1031,2 17 0 0,0
13.09.2019 04:00:00 13,7 13,4 9,5 18,6 18,1 11 6 14 7 N 1031,8 18 0 0,0
13.09.2019 03:00:00 13,1 12,5 10,4 18,8 18,1 6 3 10 5 NNE 1032,1 3,9 0 0,0
13.09.2019 02:00:00 14,4 13,6 13,0 18,8 18,1 8 5 20 11 N 1032,3 60 0 0,0
13.09.2019 01:00:00 15,4 14,8 14,1 18,8 18,1 12 7 18 10 N 1031,9 60 0 0,0
13.09.2019 00:00:00 15,6 14,8 14,5 18,9 18,1 11 6 16 9 NNW 1032,1 60 0 0,0
12.09.2019 23:00:00 16,1 15,1 14,7 18,9 18,1 11 6 17 9 NNW 1032,3 60 0 0,0
12.09.2019 22:00:00 16,6 15,0 15,3 19,0 18,1 9 5 18 10 WNW 1032,2 60 0 0,0
12.09.2019 21:00:00 18,2 15,4 16,9 18,9 18,1 12 6 17 9 NW 1031,6 60 1 0,0
12.09.2019 20:00:00 20,9 15,4 19,8 18,9 18,1 10 5 16 9 NNW 1031,4 59 60 0,0
12.09.2019 19:00:00 22,4 15,7 22,5 18,7 18,1 11 6 18 10 N 1031,4 60 56 0,0
12.09.2019 18:00:00 21,3 15,4 22,8 18,6 18,1 9 5 18 10 N 1031,6 60 32 0,0
12.09.2019 17:00:00 23,1 15,9 24,4 18,4 18,1 3 1 12 6 WNW 1031,8 34 39 0,0
12.09.2019 16:00:00 21,0 15,5 23,9 18,3 18,1 5 3 13 7 NW 1032,5 60 0 0,0
12.09.2019 15:00:00 20,6 15,8 23,6 18,1 18,1 4 2 13 7 W 1032,9 60 0 0,0
12.09.2019 14:00:00 20,0 15,2 22,9 18,1 18,1 2 1 11 6 ENE 1033,3 55 0 0,0
12.09.2019 13:00:00 18,9 15,6 20,6 18,0 18,1 4 2 10 6 NNW 1033,3 54 0 0,0
12.09.2019 12:00:00 18,2 15,4 20,4 17,9 18,1 4 2 10 5 NW 1033,3 39 0 0,0
12.09.2019 11:00:00 17,6 15,2 18,7 17,9 18,1 5 3 13 7 NNE 1033,0 34 0 0,0
12.09.2019 10:00:00 17,1 15,3 16,9 17,9 18,1 8 4 17 9 N 1032,3 20 0 0,0
12.09.2019 09:00:00 16,2 15,1 15,9 18,0 18,1 12 6 17 9 N 1031,8 60 0 0,0
12.09.2019 08:00:00 15,9 15,1 15,6 18,0 18,1 11 6 18 10 NNW 1031,1 48 0 0,0
12.09.2019 07:00:00 15,8 15,0 15,4 18,0 18,1 5 3 10 5 NNW 1030,7 56 0 0,0
12.09.2019 06:00:00 15,5 14,7 14,3 18,1 18,2 6 3 13 7 NNW 1030,6 20 0 0,0
12.09.2019 05:00:00 14,8 14,0 12,8 18,1 18,1 8 4 18 10 NW 1030,7 44 0 0,0
12.09.2019 04:00:00 16,3 14,5 16,1 18,1 18,2 9 5 22 12 NW 1030,8 60 0 0,0
12.09.2019 03:00:00 16,3 14,5 15,9 18,2 18,2 8 4 16 9 NNW 1030,8 60 0 0,0
12.09.2019 02:00:00 16,2 14,4 15,8 18,2 18,2 8 4 17 9 NNW 1030,7 60 0 0,0
12.09.2019 01:00:00 16,1 14,3 15,8 18,2 18,2 12 6 20 11 NW 1030,4 60 0 0,0
12.09.2019 00:00:00 16,0 14,4 15,6 18,3 18,2 10 5 23 12 NW 1030,3 60 0 0,0
11.09.2019 23:00:00 15,9 14,3 13,8 18,3 18,2 15 8 23 12 WNW 1030,1 60 0 0,0
11.09.2019 22:00:00 15,0 13,4 13,9 18,3 18,2 9 5 19 11 W 1029,6 60 0 0,0
11.09.2019 21:00:00 15,7 13,2 14,6 18,3 18,2 10 6 24 13 WNW 1029,1 60 3 0,0
11.09.2019 20:00:00 17,8 12,7 17,3 18,3 18,2 13 7 24 13 WNW 1028,4 52 54 0,0
11.09.2019 19:00:00 19,6 9,8 21,2 18,1 18,2 14 8 25 14 WNW 1028,3 42 60 0,0
11.09.2019 18:00:00 20,8 7,8 25,2 18,0 18,2 15 8 25 13 WNW 1027,9 46 60 0,0
11.09.2019 17:00:00 21,9 8,4 27,8 17,8 18,2 16 9 26 14 WNW 1027,5 55 60 0,0
11.09.2019 16:00:00 21,9 11,9 28,7 17,5 18,2 13 7 26 14 WNW 1027,5 60 60 0,0
11.09.2019 15:00:00 21,7 12,5 23,6 17,3 18,2 10 5 27 14 W 1027,8 60 43 0,0
11.09.2019 14:00:00 20,8 12,5 24,2 17,2 18,2 10 5 26 14 WNW 1027,7 20 55 0,0
11.09.2019 13:00:00 19,9 13,1 25,3 17,1 18,3 8 5 18 10 NW 1027,6 20 54 0,0
11.09.2019 12:00:00 18,1 12,5 20,2 17,0 18,2 8 5 16 9 NW 1027,8 35 33 0,0
11.09.2019 11:00:00 16,1 13,9 18,2 17,1 18,2 9 5 14 7 NNW 1027,8 17 32 0,0
11.09.2019 10:00:00 13,9 13,6 12,7 17,1 18,3 6 3 13 7 N 1027,2 9 32 0,0
11.09.2019 09:00:00 12,1 11,9 10,9 17,2 18,3 9 5 13 7 NNW 1026,6 4,4 0 0,2
11.09.2019 08:00:00 11,4 11,2 10,4 17,3 18,2 8 4 16 9 N 1026,0 3,6 0 0,0
11.09.2019 07:00:00 11,3 11,0 9,6 17,4 18,2 10 5 16 8 NNW 1025,4 4,5 0 0,0
11.09.2019 06:00:00 10,6 10,3 8,8 17,5 18,3 9 5 13 7 NNE 1024,7 4,3 0 0,0
11.09.2019 05:00:00 10,8 10,3 8,1 17,6 18,3 11 6 14 7 N 1024,5 8 0 0,0
11.09.2019 04:00:00 10,9 10,0 9,3 17,7 18,3 10 5 15 8 N 1024,4 15 0 0,0
11.09.2019 03:00:00 12,1 10,8 9,4 17,8 18,3 12 7 19 11 N 1024,7 34 0 0,0
11.09.2019 02:00:00 12,5 10,6 10,9 17,9 18,3 11 6 21 11 N 1024,4 54 0 0,0
11.09.2019 01:00:00 13,2 10,0 9,3 18,0 18,3 12 6 19 11 N 1024,3 60 0 0,0
11.09.2019 00:00:00 12,9 9,0 9,0 18,1 18,3 8 4 13 7 NNW 1023,7 60 0 0,0
10.09.2019 23:00:00 13,8 8,8 9,6 18,1 18,3 9 5 13 7 NNW 1023,0 60 0 0,0
10.09.2019 22:00:00 14,5 8,9 9,6 18,1 18,3 7 4 14 7 NNW 1022,5 60 0 0,0
10.09.2019 21:00:00 15,8 8,8 10,2 18,1 18,3 6 3 10 6 N 1021,5 60 4 0,0
10.09.2019 20:00:00 18,5 8,7 16,9 18,0 18,3 10 5 23 13 N 1020,6 60 29 0,0
10.09.2019 19:00:00 20,8 7,8 21,5 17,9 18,4 20 11 34 18 N 1019,8 59 49 0,0
10.09.2019 18:00:00 21,8 7,2 27,9 17,8 18,4 19 10 35 19 N 1019,0 40 60 0,0
10.09.2019 17:00:00 22,4 8,1 28,7 17,5 18,4 18 10 34 18 NNE 1018,8 35 60 0,0
10.09.2019 16:00:00 21,7 7,5 28,3 17,3 18,4 24 13 36 20 NNE 1018,5 33 60 0,0
10.09.2019 15:00:00 21,3 8,5 28,2 17,1 18,4 20 11 34 18 NNE 1018,6 33 60 0,0
10.09.2019 14:00:00 20,5 9,4 27,0 17,0 18,4 21 11 35 19 NNE 1018,5 37 60 0,0
10.09.2019 13:00:00 19,8 9,9 24,8 16,9 18,4 18 10 32 17 NNE 1017,9 38 60 0,0
10.09.2019 12:00:00 18,3 10,1 22,6 16,9 18,4 16 9 24 13 NE 1017,4 37 60 0,0
10.09.2019 11:00:00 16,0 12,4 17,8 16,9 18,4 13 7 26 14 NNE 1016,6 28 60 0,0
10.09.2019 10:00:00 13,7 11,9 13,7 16,9 18,4 16 9 23 12 NNE 1015,7 18 53 0,0
10.09.2019 09:00:00 12,1 11,3 10,5 16,9 18,4 14 8 21 11 N 1014,8 14 48 0,0
10.09.2019 08:00:00 11,1 10,6 10,3 17,0 18,4 13 7 20 11 NNE 1013,6 9 0 0,0
10.09.2019 07:00:00 11,9 11,3 11,1 17,0 18,4 13 7 23 12 NNE 1012,7 20 0 0,0
10.09.2019 06:00:00 12,5 12,0 11,9 17,0 18,4 14 8 24 13 NNE 1011,7 36 0 0,0
10.09.2019 05:00:00 12,1 11,6 11,3 17,1 18,4 9 5 17 9 NNE 1010,9 19 0 0,0

tt = temperature
td = dewpoint
tt 5cm = temperature 5cm
tt -20cm = temperature -20cm
tt -100cm = temperature -100cm
ff = wind speed
fx = gusts
dd = wind direction
ppp = reduced air pressure
vv = visibility
sd = sunshine duration
rr = precipitation

Next stations